FW5399 Weather Reports


Display with metric or nautical units.
time (UTC)temp
F
wind
direction
speed
MPH
gust
MPH
rain 1hr
in
rain 24hr
in
rain mn
in
humidity
%
barometer
mb
20260504160411 51 324 0.0 1.0 0.00 0.00 0.00 93 1034.3
20260504150820 52 340 0.0 1.0 0.00 0.00 0.00 92 1034.7
20260504150731 52 306 0.0 1.0 0.00 0.00 0.00 92 1034.8
20260504140814 51 324 0.0 1.0 0.00 0.01 0.00 93 1035.3
20260504140309 51 324 0.0 1.0 0.00 0.01 0.00 94 1035.3
20260504130310 50 324 0.0 0.0 0.00 0.01 0.00 98 1035.9
20260504110234 44 101 0.0 0.0 0.00 0.01 0.01 99 1035.7
20260504100230 44 101 0.0 0.0 0.00 0.01 0.01 97 1035.8
20260504100206 45 101 0.0 0.0 0.00 0.01 0.01 97 1035.6
20260504081124 51 101 0.0 0.0 0.00 0.01 0.01 97 1035.5
20260504080617 52 101 0.0 0.0 0.00 0.01 0.01 97 1035.4
20260504080501 52 101 0.0 0.0 0.00 0.01 0.01 97 1035.3
20260504050256 55 101 0.0 0.0 0.00 0.01 0.01 88 1033.8
20260504050211 56 101 0.0 0.0 0.00 0.01 0.01 87 1033.7
20260504045701 56 101 0.0 0.0 0.00 0.01 0.01 86 1033.7
20260504044752 57 101 0.0 0.0 0.00 0.01 0.01 85 1033.6
20260504044422 58 101 0.0 0.0 0.00 0.01 0.01 83 1033.6
20260504043245 59 101 0.0 0.0 0.00 0.01 0.01 80 1033.7
20260504043146 59 101 0.0 0.0 0.00 0.01 0.01 79 1033.6
20260504042245 60 101 0.0 1.0 0.00 0.01 0.01 78 1033.6
20260504041743 61 101 0.0 1.0 0.00 0.01 0.01 76 1033.5
20260504041639 61 144 0.0 2.0 0.00 0.01 0.01 75 1033.5
20260504041224 61 134 0.0 2.0 0.00 0.01 0.01 75 1033.5
20260504040642 62 133 0.0 2.0 0.00 0.01 0.01 74 1033.6
20260504035742 62 5 0.0 2.0 0.00 0.01 0.01 74 1033.6
20260504035241 62 175 0.0 2.0 0.00 0.01 0.01 74 1033.5
20260504034741 63 123 0.0 2.0 0.00 0.01 0.01 74 1033.6
20260504034420 64 149 0.0 3.0 0.00 0.01 0.01 73 1033.5
20260504034325 63 68 0.0 3.0 0.00 0.01 0.01 73 1033.5
20260504033141 65 124 1.0 4.0 0.00 0.01 0.01 72 1033.4
20260504032711 65 125 1.0 6.0 0.00 0.01 0.01 71 1033.4
20260504031740 65 120 1.0 6.0 0.00 0.01 0.01 70 1033.4
20260504031242 66 195 0.0 4.0 0.00 0.01 0.01 69 1033.5
20260504030740 66 35 0.0 3.0 0.00 0.01 0.01 70 1033.5
20260504030300 65 185 0.0 3.0 0.00 0.01 0.01 70 1033.4
20260504025744 65 45 1.0 5.0 0.00 0.01 0.01 70 1033.5
20260504025705 65 125 1.0 5.0 0.00 0.01 0.01 70 1033.5
20260504025200 65 160 1.0 4.0 0.00 0.01 0.01 69 1033.5
20260504024238 65 171 1.0 4.0 0.00 0.01 0.01 70 1033.5
20260504023735 65 132 2.0 5.0 0.00 0.01 0.01 69 1033.5
20260504023234 65 119 2.0 5.0 0.00 0.01 0.01 68 1033.4
20260504022733 66 165 1.0 5.0 0.00 0.01 0.01 67 1033.5
20260504022232 66 201 1.0 3.0 0.00 0.01 0.01 68 1033.4
20260504021729 66 161 1.0 4.0 0.00 0.01 0.01 67 1033.4
20260504021406 67 330 0.0 4.0 0.00 0.01 0.01 68 1033.5
20260504020223 66 7 1.0 4.0 0.00 0.01 0.01 68 1033.5
20260504015716 66 154 0.0 4.0 0.00 0.01 0.01 66 1033.5
20260504015212 67 145 0.0 4.0 0.00 0.01 0.01 67 1033.6
20260504014704 66 52 0.0 2.0 0.00 0.01 0.01 69 1033.5
20260504014158 66 19 0.0 2.0 0.00 0.01 0.01 67 1033.6
20260504013652 66 235 0.0 0.0 0.00 0.01 0.01 67 1033.7
20260504013147 66 238 0.0 1.0 0.00 0.01 0.01 71 1033.7
20260504012642 65 232 0.0 0.0 0.00 0.01 0.01 71 1033.7
20260504012134 64 291 0.0 1.0 0.00 0.01 0.01 70 1033.8
20260504011628 65 226 0.0 2.0 0.00 0.01 0.01 69 1034.0
20260504011126 65 191 0.0 2.0 0.00 0.01 0.01 69 1033.9
20260504010616 65 241 0.0 1.0 0.00 0.01 0.01 70 1033.9
20260504010109 64 250 0.0 1.0 0.00 0.01 0.01 71 1034.0
20260504005602 63 229 0.0 1.0 0.00 0.01 0.01 71 1033.9
20260504005057 63 182 0.0 1.0 0.00 0.01 0.01 70 1034.0
20260504004552 64 206 0.0 3.0 0.00 0.01 0.01 71 1034.0
20260504004045 64 225 1.0 3.0 0.00 0.01 0.01 69 1034.1
20260504003538 65 227 0.0 2.0 0.00 0.01 0.01 67 1034.0
20260504003451 67 213 0.0 3.0 0.00 0.01 0.01 67 1034.3
20260504002923 67 314 0.0 3.0 0.00 0.01 0.01 67 1034.2
20260504002022 68 338 0.0 1.0 0.00 0.01 0.01 64 1034.3
20260504001514 67 265 0.0 2.0 0.00 0.01 0.01 67 1034.6
20260504001008 67 333 0.0 2.0 0.00 0.01 0.01 67 1034.8
20260504000502 67 33 0.0 1.0 0.00 0.01 0.01 67 1034.8
20260503235957 66 97 0.0 3.0 0.00 0.01 0.01 68 1034.9
20260503235456 65 97 0.0 3.0 0.00 0.01 0.01 66 1034.9
20260503235432 65 179 0.0 2.0 0.00 0.01 0.01 67 1035.2
20260503234844 65 149 0.0 2.0 0.00 0.01 0.01 68 1035.3
20260503233959 64 150 0.0 2.0 0.00 0.01 0.01 68 1035.3
20260503233630 64 36 0.0 3.0 0.00 0.01 0.01 68 1035.4
20260503232450 65 324 0.0 3.0 0.00 0.01 0.01 72 1035.3
20260503231945 64 349 0.0 2.0 0.00 0.01 0.01 71 1035.4
20260503231442 64 24 0.0 1.0 0.00 0.01 0.01 71 1035.3
20260503230944 64 291 0.0 2.0 0.00 0.01 0.01 74 1035.2
20260503230445 64 235 0.0 3.0 0.00 0.01 0.01 70 1035.2
20260503225945 63 179 1.0 3.0 0.00 0.01 0.01 71 1035.4
20260503225443 63 251 1.0 3.0 0.00 0.01 0.01 72 1035.5
20260503224943 64 207 0.0 2.0 0.00 0.01 0.01 69 1035.5
20260503224442 64 291 0.0 1.0 0.00 0.01 0.01 72 1035.4
20260503223942 64 285 0.0 1.0 0.00 0.01 0.01 76 1035.5
20260503223448 64 324 0.0 1.0 0.00 0.01 0.01 78 1035.4
20260503222946 63 283 0.0 0.0 0.00 0.01 0.01 78 1035.4
20260503222443 62 282 0.0 1.0 0.00 0.01 0.01 79 1035.5
20260503221934 62 317 0.0 0.0 0.00 0.01 0.01 79 1035.5
20260503221429 62 319 0.0 0.0 0.00 0.01 0.01 80 1035.5
20260503221331 61 319 0.0 1.0 0.00 0.01 0.01 81 1035.5
20260503220803 61 338 0.0 1.0 0.00 0.01 0.01 81 1035.5
20260503215925 60 315 0.0 2.0 0.00 0.01 0.01 83 1035.6
20260503215422 60 333 0.0 2.0 0.00 0.01 0.01 83 1035.7
20260503214920 59 307 0.0 1.0 0.00 0.01 0.01 85 1035.8
20260503214422 59 305 0.0 1.0 0.00 0.01 0.01 86 1035.8
20260503213921 58 306 0.0 1.0 0.00 0.01 0.01 87 1035.8
20260503213752 58 306 0.0 1.0 0.00 0.01 0.01 88 1035.8
20260503212920 57 279 0.0 0.0 0.00 0.01 0.01 88 1035.9
20260503212815 57 279 0.0 1.0 0.00 0.01 0.01 89 1035.7
20260503211923 56 277 0.0 1.0 0.00 0.01 0.01 89 1035.7
20260503211422 56 295 0.0 1.0 0.00 0.01 0.01 91 1035.8
20260503211321 55 295 0.0 2.0 0.00 0.01 0.01 93 1035.7
20260503210420 54 295 0.0 2.0 0.00 0.01 0.01 94 1035.7
20260503210317 54 315 0.0 0.0 0.00 0.01 0.01 96 1035.7
20260503205421 53 315 0.0 1.0 0.00 0.01 0.01 98 1035.7
20260503204921 52 315 0.0 1.0 0.00 0.01 0.01 99 1035.7
20260503204422 51 312 0.0 1.0 0.00 0.01 0.01 99 1035.7
20260503203922 51 311 0.0 1.0 0.00 0.01 0.01 100 1035.7
20260503203421 51 309 0.0 0.0 0.00 0.01 0.01 100 1035.7
20260503202918 50 308 0.0 0.0 0.00 0.01 0.01 100 1035.8
20260503202411 49 309 0.0 0.0 0.00 0.01 0.01 99 1035.7
20260503201908 48 309 0.0 0.0 0.00 0.01 0.01 100 1035.6
20260503201406 48 308 0.0 0.0 0.00 0.01 0.01 100 1035.6
20260503200912 48 309 0.0 0.0 0.00 0.01 0.01 99 1035.6
20260503200756 48 309 0.0 0.0 0.00 0.01 0.01 99 1035.5
20260503200315 47 309 0.0 0.0 0.00 0.01 0.01 99 1035.4
20260503195408 47 310 0.0 0.0 0.00 0.01 0.01 99 1035.2
20260503194904 47 310 0.0 0.0 0.00 0.01 0.01 99 1035.2
20260503194404 47 310 0.0 0.0 0.00 0.01 0.01 99 1035.2
20260503194311 47 310 0.0 0.0 0.00 0.01 0.01 99 1035.2
20260503193404 47 310 0.0 0.0 0.00 0.01 0.01 99 1035.2
20260503192906 47 310 0.0 0.0 0.00 0.01 0.01 99 1035.2
20260503192404 47 310 0.0 0.0 0.00 0.01 0.01 99 1035.1
20260503191904 47 310 0.0 0.0 0.00 0.01 0.01 99 1034.9
20260503191535 47 310 0.0 0.0 0.00 0.01 0.01 99 1034.8
20260503190411 47 310 0.0 1.0 0.00 0.01 0.01 99 1034.6
20260503185910 47 309 0.0 0.0 0.00 0.01 0.01 99 1034.6
20260503185404 47 310 0.0 0.0 0.00 0.01 0.01 99 1034.6
20260503184858 47 309 0.0 0.0 0.00 0.01 0.01 99 1034.6
20260503184353 47 310 0.0 0.0 0.00 0.01 0.01 99 1034.6
20260503184254 47 310 0.0 0.0 0.00 0.01 0.01 98 1034.6
20260503183340 47 310 0.0 0.0 0.00 0.01 0.01 98 1034.5
20260503182834 47 310 0.0 0.0 0.00 0.01 0.01 98 1034.5
20260503182328 47 309 0.0 0.0 0.00 0.01 0.01 98 1034.5
20260503181822 48 309 0.0 0.0 0.00 0.01 0.01 99 1034.4
20260503181733 48 309 0.0 1.0 0.00 0.01 0.01 99 1034.4
20260503180811 49 309 0.0 1.0 0.00 0.01 0.01 99 1034.3
20260503180305 49 344 0.0 1.0 0.00 0.01 0.01 99 1034.4
20260503175758 49 344 0.0 1.0 0.00 0.01 0.01 99 1034.3
20260503175252 49 351 0.0 1.0 0.00 0.01 0.01 99 1034.2
20260503174747 49 4 0.0 0.0 0.00 0.01 0.01 100 1034.1
20260503174240 48 354 0.0 0.0 0.00 0.01 0.01 99 1034.3
20260503173734 48 325 0.0 0.0 0.00 0.01 0.01 99 1034.2
20260503173228 48 325 0.0 0.0 0.00 0.01 0.01 99 1034.2
20260503172723 48 325 0.0 0.0 0.00 0.01 0.01 99 1034.2
20260503172605 49 325 0.0 0.0 0.00 0.01 0.01 99 1034.3
20260503171704 49 325 0.0 0.0 0.00 0.01 0.01 99 1034.3
20260503171159 49 325 0.0 1.0 0.00 0.01 0.01 100 1034.3
20260503170653 49 325 0.0 1.0 0.00 0.01 0.01 100 1034.4
20260503170147 49 325 0.0 2.0 0.00 0.01 0.01 100 1034.5